Torna al catalogo

STARLINK-11650

AttivoComunicazioniVLEO
NORAD 63312·PAYLOAD·🇺🇸 United States

Lanciato Mar 18, 2025 da Cape Canaveral Space Force Station

Loading…

Prossimi Passaggi (prossime 24 ore)

TLE

AggiornatoSource: CelesTrak SupGP

Epoca: Sep 14, 2026, 14:42 UTC

1 63312C 25057F   26257.61298611 -.00090451  00000+0 -70282-3 0  2579
2 63312  43.0012 205.9657 0001586 266.4019 253.0211 15.70873529    11

Traccia STARLINK-11650 in tempo reale con AllMySat

Download on the App Store